Time,TemperatureF,DewpointF,PressureIn,WindDirection,WindDirectionDegrees,WindSpeedMPH,WindSpeedGustMPH,Humidity,HourlyPrecipIn,Conditions,Clouds,dailyrainin,SoftwareType,DateUTC
2013-10-23 00:05:00,49.6,44.0,29.50,SSE,162,0.0,0.0,81,0.00,,,0.00,Wunderground v.1.13,2013-10-23 04:05:00,
2013-10-23 00:14:00,49.5,43.6,29.50,SW,220,0.0,0.0,80,0.00,,,0.00,Wunderground v.1.13,2013-10-23 04:14:00,
2013-10-23 00:19:00,49.4,43.5,29.50,South,181,0.0,0.0,80,0.00,,,0.00,Wunderground v.1.13,2013-10-23 04:19:00,
2013-10-23 00:24:00,49.2,43.6,29.49,South,181,0.0,0.0,81,0.00,,,0.00,Wunderground v.1.13,2013-10-23 04:24:00,
2013-10-23 00:30:00,49.2,43.3,29.49,WSW,257,0.0,0.0,80,0.00,,,0.00,Wunderground v.1.13,2013-10-23 04:30:00,
2013-10-23 00:34:00,49.1,43.2,29.49,SW,232,0.0,0.0,80,0.00,,,0.00,Wunderground v.1.13,2013-10-23 04:34:00,
2013-10-23 00:39:00,48.9,43.3,29.48,SSE,165,0.0,0.0,81,0.00,,,0.00,Wunderground v.1.13,2013-10-23 04:39:00,
2013-10-23 00:45:00,48.8,43.2,29.48,SSE,168,0.0,0.0,81,0.00,,,0.00,Wunderground v.1.13,2013-10-23 04:45:00,
2013-10-23 00:55:00,48.6,43.4,29.47,SE,126,0.0,0.0,82,0.00,,,0.00,Wunderground v.1.13,2013-10-23 04:55:00,
2013-10-23 01:00:00,48.6,43.0,29.47,SSE,157,0.0,0.0,81,0.00,,,0.00,Wunderground v.1.13,2013-10-23 05:00:00,
2013-10-23 01:10:00,48.6,42.7,29.47,SSW,210,0.0,0.0,80,0.00,,,0.00,Wunderground v.1.13,2013-10-23 05:10:00,
2013-10-23 01:15:00,48.6,42.7,29.47,South,186,0.0,0.0,80,0.00,,,0.00,Wunderground v.1.13,2013-10-23 05:15:00,
2013-10-23 01:24:00,48.6,42.7,29.46,WSW,257,1.0,1.0,80,0.00,,,0.00,Wunderground v.1.13,2013-10-23 05:24:00,
2013-10-23 01:29:00,48.6,42.7,29.46,WNW,291,0.0,0.0,80,0.00,,,0.00,Wunderground v.1.13,2013-10-23 05:29:00,
2013-10-23 01:35:00,48.6,43.0,29.46,SSW,212,0.0,1.0,81,0.00,,,0.00,Wunderground v.1.13,2013-10-23 05:35:00,
2013-10-23 01:44:00,48.5,42.6,29.46,SE,133,0.0,0.0,80,0.00,,,0.00,Wunderground v.1.13,2013-10-23 05:44:00,
2013-10-23 01:54:00,48.2,42.6,29.45,SSW,198,0.0,1.0,81,0.00,,,0.00,Wunderground v.1.13,2013-10-23 05:54:00,
2013-10-23 02:05:00,48.2,43.3,29.45,SW,222,0.0,0.0,83,0.00,,,0.00,Wunderground v.1.13,2013-10-23 06:05:00,
2013-10-23 02:14:00,47.9,43.6,29.45,East,96,0.0,1.0,85,0.00,,,0.00,Wunderground v.1.13,2013-10-23 06:14:00,
2013-10-23 02:24:00,47.7,42.8,29.45,SW,219,0.0,0.0,83,0.00,,,0.00,Wunderground v.1.13,2013-10-23 06:24:00,
2013-10-23 02:34:00,47.7,42.8,29.45,SSW,206,0.0,0.0,83,0.00,,,0.00,Wunderground v.1.13,2013-10-23 06:34:00,
2013-10-23 02:39:00,47.6,43.0,29.46,SW,226,0.0,0.0,84,0.00,,,0.00,Wunderground v.1.13,2013-10-23 06:39:00,
2013-10-23 02:50:00,47.4,43.4,29.46,NW,322,0.0,0.0,86,0.00,,,0.00,Wunderground v.1.13,2013-10-23 06:50:00,
2013-10-23 02:55:00,47.3,43.0,29.46,NW,323,0.0,0.0,85,0.00,,,0.00,Wunderground v.1.13,2013-10-23 06:55:00,
2013-10-23 03:00:00,47.3,42.7,29.46,NW,323,0.0,0.0,84,0.00,,,0.00,Wunderground v.1.13,2013-10-23 07:00:00,
2013-10-23 03:09:00,47.1,42.8,29.45,ENE,66,0.0,0.0,85,0.00,,,0.00,Wunderground v.1.13,2013-10-23 07:09:00,
2013-10-23 03:14:00,47.1,42.2,29.45,East,80,0.0,0.0,83,0.00,,,0.00,Wunderground v.1.13,2013-10-23 07:14:00,
2013-10-23 03:20:00,47.0,42.1,29.46,North,350,0.0,0.0,83,0.00,,,0.00,Wunderground v.1.13,2013-10-23 07:20:00,
2013-10-23 03:25:00,47.0,42.1,29.46,North,350,0.0,1.0,83,0.00,,,0.00,Wunderground v.1.13,2013-10-23 07:25:00,
2013-10-23 03:34:00,46.8,41.9,29.46,NNW,337,1.0,1.0,83,0.00,,,0.00,Wunderground v.1.13,2013-10-23 07:34:00,
2013-10-23 03:40:00,46.7,41.8,29.45,NNW,337,0.0,0.0,83,0.00,,,0.00,Wunderground v.1.13,2013-10-23 07:40:00,
2013-10-23 03:49:00,46.5,41.3,29.46,ESE,109,0.0,0.0,82,0.00,,,0.00,Wunderground v.1.13,2013-10-23 07:49:00,
2013-10-23 03:55:00,46.4,41.2,29.46,SE,136,0.0,0.0,82,0.00,,,0.00,Wunderground v.1.13,2013-10-23 07:55:00,
2013-10-23 04:04:00,46.1,41.5,29.46,NW,312,1.0,1.0,84,0.00,,,0.00,Wunderground v.1.13,2013-10-23 08:04:00,
2013-10-23 04:10:00,46.0,40.5,29.46,SE,145,0.0,1.0,81,0.00,,,0.00,Wunderground v.1.13,2013-10-23 08:10:00,
2013-10-23 04:20:00,45.8,40.3,29.45,SE,124,0.0,0.0,81,0.00,,,0.00,Wunderground v.1.13,2013-10-23 08:20:00,
2013-10-23 04:30:00,45.5,40.3,29.45,West,271,0.0,0.0,82,0.00,,,0.00,Wunderground v.1.13,2013-10-23 08:30:00,
2013-10-23 04:39:00,45.4,40.2,29.46,South,191,0.0,0.0,82,0.00,,,0.00,Wunderground v.1.13,2013-10-23 08:39:00,
2013-10-23 04:49:00,45.2,40.0,29.46,SSE,164,0.0,0.0,82,0.00,,,0.00,Wunderground v.1.13,2013-10-23 08:49:00,
2013-10-23 04:55:00,45.1,39.6,29.45,SSW,206,0.0,0.0,81,0.00,,,0.00,Wunderground v.1.13,2013-10-23 08:55:00,
2013-10-23 05:05:00,44.8,39.6,29.45,ESE,117,0.0,0.0,82,0.00,,,0.00,Wunderground v.1.13,2013-10-23 09:05:00,
2013-10-23 05:15:00,44.6,39.4,29.45,SW,217,0.0,1.0,82,0.00,,,0.00,Wunderground v.1.13,2013-10-23 09:15:00,
2013-10-23 05:25:00,44.6,39.1,29.45,SSW,192,0.0,0.0,81,0.00,,,0.00,Wunderground v.1.13,2013-10-23 09:25:00,
2013-10-23 05:35:00,44.3,39.2,29.45,NW,306,0.0,0.0,82,0.00,,,0.00,Wunderground v.1.13,2013-10-23 09:35:00,
2013-10-23 05:40:00,44.3,39.2,29.45,East,88,0.0,0.0,82,0.00,,,0.00,Wunderground v.1.13,2013-10-23 09:40:00,
2013-10-23 05:50:00,44.2,39.1,29.45,SE,144,0.0,2.0,82,0.00,,,0.00,Wunderground v.1.13,2013-10-23 09:50:00,
2013-10-23 06:00:00,44.1,39.3,29.45,SSE,165,0.0,0.0,83,0.00,,,0.00,Wunderground v.1.13,2013-10-23 10:00:00,
2013-10-23 06:09:00,43.9,39.1,29.45,ESE,113,0.0,0.0,83,0.00,,,0.00,Wunderground v.1.13,2013-10-23 10:09:00,
2013-10-23 06:15:00,43.9,39.1,29.45,North,0,0.0,0.0,83,0.00,,,0.00,Wunderground v.1.13,2013-10-23 10:15:00,
2013-10-23 06:25:00,43.9,39.4,29.45,North,0,0.0,2.0,84,0.00,,,0.00,Wunderground v.1.13,2013-10-23 10:25:00,
2013-10-23 06:34:00,44.1,39.9,29.48,North,11,1.0,1.0,85,0.00,,,0.00,Wunderground v.1.13,2013-10-23 10:34:00,
2013-10-23 06:44:00,44.2,39.4,29.48,NNW,340,0.0,1.0,83,0.00,,,0.00,Wunderground v.1.13,2013-10-23 10:44:00,
2013-10-23 06:49:00,44.2,39.7,29.48,NNW,347,0.0,0.0,84,0.00,,,0.00,Wunderground v.1.13,2013-10-23 10:49:00,
2013-10-23 07:00:00,44.2,40.0,29.48,NNW,333,0.0,1.0,85,0.00,,,0.00,Wunderground v.1.13,2013-10-23 11:00:00,
2013-10-23 07:10:00,44.2,39.7,29.48,SE,127,0.0,0.0,84,0.00,,,0.00,Wunderground v.1.13,2013-10-23 11:10:00,
2013-10-23 07:20:00,44.1,40.2,29.49,SSE,148,0.0,0.0,86,0.00,,,0.00,Wunderground v.1.13,2013-10-23 11:20:00,
2013-10-23 07:30:00,44.1,39.6,29.49,SSW,209,0.0,0.0,84,0.00,,,0.00,Wunderground v.1.13,2013-10-23 11:30:00,
2013-10-23 07:40:00,43.9,39.4,29.50,South,184,0.0,0.0,84,0.00,,,0.00,Wunderground v.1.13,2013-10-23 11:40:00,
2013-10-23 07:50:00,44.1,39.9,29.50,SE,136,0.0,0.0,85,0.00,,,0.00,Wunderground v.1.13,2013-10-23 11:50:00,
2013-10-23 07:55:00,44.2,39.7,29.50,South,181,0.0,0.0,84,0.00,,,0.00,Wunderground v.1.13,2013-10-23 11:55:00,
2013-10-23 08:04:00,44.3,40.1,29.50,ENE,78,0.0,0.0,85,0.00,,,0.00,Wunderground v.1.13,2013-10-23 12:04:00,
2013-10-23 08:10:00,44.3,39.8,29.49,SE,140,0.0,0.0,84,0.00,,,0.00,Wunderground v.1.13,2013-10-23 12:10:00,
2013-10-23 08:20:00,44.5,40.0,29.50,SSW,195,0.0,0.0,84,0.00,,,0.00,Wunderground v.1.13,2013-10-23 12:20:00,
2013-10-23 08:29:00,44.5,39.7,29.50,South,171,0.0,0.0,83,0.00,,,0.00,Wunderground v.1.13,2013-10-23 12:29:00,
2013-10-23 08:39:00,44.6,39.1,29.51,SSE,148,0.0,0.0,81,0.00,,,0.00,Wunderground v.1.13,2013-10-23 12:39:00,
2013-10-23 08:45:00,44.8,39.0,29.51,East,83,0.0,2.0,80,0.00,,,0.00,Wunderground v.1.13,2013-10-23 12:45:00,
2013-10-23 08:55:00,44.9,39.1,29.51,SSW,200,0.0,0.0,80,0.00,,,0.00,Wunderground v.1.13,2013-10-23 12:55:00,
2013-10-23 09:04:00,44.9,38.8,29.51,ESE,102,1.0,1.0,79,0.00,,,0.00,Wunderground v.1.13,2013-10-23 13:04:00,
2013-10-23 09:09:00,45.1,39.3,29.51,SE,133,1.0,1.0,80,0.00,,,0.00,Wunderground v.1.13,2013-10-23 13:09:00,
2013-10-23 09:15:00,45.1,38.6,29.51,NW,319,0.0,1.0,78,0.00,,,0.00,Wunderground v.1.13,2013-10-23 13:15:00,
2013-10-23 09:24:00,45.2,38.1,29.52,West,275,0.0,0.0,76,0.00,,,0.00,Wunderground v.1.13,2013-10-23 13:24:00,
2013-10-23 09:29:00,45.4,38.6,29.52,NW,320,0.0,0.0,77,0.00,,,0.00,Wunderground v.1.13,2013-10-23 13:29:00,
2013-10-23 09:39:00,45.5,37.3,29.52,NNW,337,1.0,1.0,73,0.00,,,0.00,Wunderground v.1.13,2013-10-23 13:39:00,
2013-10-23 09:45:00,45.5,37.0,29.52,SSW,205,1.0,1.0,72,0.00,,,0.00,Wunderground v.1.13,2013-10-23 13:45:00,
2013-10-23 09:55:00,45.7,37.5,29.51,SW,236,1.0,1.0,73,0.00,,,0.00,Wunderground v.1.13,2013-10-23 13:55:00,
2013-10-23 10:00:00,45.7,37.5,29.51,East,90,1.0,1.0,73,0.00,,,0.00,Wunderground v.1.13,2013-10-23 14:00:00,
2013-10-23 10:05:00,45.7,36.5,29.52,North,1,1.0,1.0,70,0.00,,,0.00,Wunderground v.1.13,2013-10-23 14:05:00,
2013-10-23 10:15:00,45.8,36.2,29.52,South,175,1.0,1.0,69,0.00,,,0.00,Wunderground v.1.13,2013-10-23 14:15:00,
2013-10-23 10:25:00,45.7,35.0,29.52,ESE,119,2.0,2.0,66,0.00,,,0.00,Wunderground v.1.13,2013-10-23 14:25:00,
2013-10-23 10:34:00,46.1,35.0,29.52,South,169,1.0,1.0,65,0.00,,,0.00,Wunderground v.1.13,2013-10-23 14:34:00,
2013-10-23 10:40:00,47.1,35.5,29.53,ENE,64,1.0,1.0,64,0.00,,,0.00,Wunderground v.1.13,2013-10-23 14:40:00,
2013-10-23 10:50:00,48.2,36.6,29.52,NNW,346,1.0,3.0,64,0.00,,,0.00,Wunderground v.1.13,2013-10-23 14:50:00,
2013-10-23 10:55:00,48.2,37.0,29.52,SSW,213,1.0,3.0,65,0.00,,,0.00,Wunderground v.1.13,2013-10-23 14:55:00,
2013-10-23 11:04:00,48.2,38.1,29.52,NNW,332,1.0,4.0,68,0.00,,,0.00,Wunderground v.1.13,2013-10-23 15:04:00,
2013-10-23 11:09:00,48.5,35.2,29.52,WNW,295,1.0,1.0,60,0.00,,,0.00,Wunderground v.1.13,2013-10-23 15:09:00,
2013-10-23 11:19:00,49.2,35.0,29.52,SE,127,2.0,2.0,58,0.00,,,0.00,Wunderground v.1.13,2013-10-23 15:19:00,
2013-10-23 11:25:00,49.6,35.0,29.51,East,88,1.0,1.0,57,0.00,,,0.00,Wunderground v.1.13,2013-10-23 15:25:00,
2013-10-23 11:35:00,50.1,35.9,29.51,SSE,158,1.0,4.0,58,0.00,,,0.00,Wunderground v.1.13,2013-10-23 15:35:00,
2013-10-23 11:45:00,50.1,35.9,29.51,NNW,337,1.0,1.0,58,0.00,,,0.00,Wunderground v.1.13,2013-10-23 15:45:00,
2013-10-23 11:50:00,50.2,35.5,29.52,SE,143,1.0,1.0,57,0.00,,,0.00,Wunderground v.1.13,2013-10-23 15:50:00,
2013-10-23 11:59:00,50.2,34.6,29.52,SSE,147,2.0,3.0,55,0.00,,,0.00,Wunderground v.1.13,2013-10-23 15:59:00,
2013-10-23 12:05:00,50.5,34.9,29.53,East,79,1.0,2.0,55,0.00,,,0.00,Wunderground v.1.13,2013-10-23 16:05:00,
2013-10-23 12:10:00,50.4,35.7,29.53,NNE,16,1.0,6.0,57,0.00,,,0.00,Wunderground v.1.13,2013-10-23 16:10:00,
2013-10-23 12:20:00,49.2,34.6,29.53,NNW,329,2.0,2.0,57,0.00,,,0.00,Wunderground v.1.13,2013-10-23 16:20:00,
2013-10-23 12:29:00,48.9,33.4,29.53,North,356,2.0,2.0,55,0.00,,,0.00,Wunderground v.1.13,2013-10-23 16:29:00,
2013-10-23 12:34:00,48.9,35.2,29.53,NNW,344,2.0,2.0,59,0.00,,,0.00,Wunderground v.1.13,2013-10-23 16:34:00,
2013-10-23 12:40:00,49.2,34.2,29.54,NNE,31,1.0,1.0,56,0.00,,,0.00,Wunderground v.1.13,2013-10-23 16:40:00,
2013-10-23 12:50:00,49.2,35.0,29.53,North,0,2.0,2.0,58,0.00,,,0.00,Wunderground v.1.13,2013-10-23 16:50:00,
2013-10-23 12:59:00,49.6,36.7,29.53,NW,322,1.0,1.0,61,0.00,,,0.00,Wunderground v.1.13,2013-10-23 16:59:00,
2013-10-23 13:05:00,49.8,36.5,29.54,South,188,1.0,1.0,60,0.00,,,0.00,Wunderground v.1.13,2013-10-23 17:05:00,
2013-10-23 13:15:00,50.4,36.2,29.54,NNW,335,1.0,2.0,58,0.00,,,0.00,Wunderground v.1.13,2013-10-23 17:15:00,
2013-10-23 13:20:00,49.9,34.8,29.54,NNW,333,1.0,1.0,56,0.00,,,0.00,Wunderground v.1.13,2013-10-23 17:20:00,
2013-10-23 13:29:00,49.2,35.0,29.54,NW,326,1.0,1.0,58,0.00,,,0.00,Wunderground v.1.13,2013-10-23 17:29:00,
2013-10-23 13:34:00,49.4,34.3,29.55,NW,325,1.0,1.0,56,0.00,,,0.00,Wunderground v.1.13,2013-10-23 17:34:00,
2013-10-23 13:44:00,49.6,37.1,29.55,NNE,20,1.0,1.0,62,0.00,,,0.00,Wunderground v.1.13,2013-10-23 17:44:00,
2013-10-23 13:50:00,48.9,34.8,29.55,NW,316,2.0,2.0,58,0.00,,,0.00,Wunderground v.1.13,2013-10-23 17:50:00,
2013-10-23 13:59:00,48.5,35.2,29.55,NNW,346,2.0,2.0,60,0.00,,,0.00,Wunderground v.1.13,2013-10-23 17:59:00,
2013-10-23 14:04:00,48.5,36.1,29.55,NNW,330,1.0,2.0,62,0.00,,,0.00,Wunderground v.1.13,2013-10-23 18:04:00,
2013-10-23 14:10:00,48.2,34.1,29.55,ENE,61,1.0,1.0,58,0.00,,,0.00,Wunderground v.1.13,2013-10-23 18:10:00,
2013-10-23 14:20:00,47.6,33.5,29.54,North,356,1.0,1.0,58,0.00,,,0.00,Wunderground v.1.13,2013-10-23 18:20:00,
2013-10-23 14:30:00,47.9,33.8,29.54,NNW,336,1.0,4.0,58,0.00,,,0.00,Wunderground v.1.13,2013-10-23 18:30:00,
2013-10-23 14:39:00,47.9,34.3,29.56,ENE,69,1.0,1.0,59,0.00,,,0.00,Wunderground v.1.13,2013-10-23 18:39:00,
2013-10-23 14:45:00,48.2,33.7,29.56,NNW,343,1.0,2.0,57,0.00,,,0.00,Wunderground v.1.13,2013-10-23 18:45:00,
2013-10-23 14:54:00,48.0,33.9,29.56,NE,41,2.0,2.0,58,0.00,,,0.00,Wunderground v.1.13,2013-10-23 18:54:00,
2013-10-23 15:05:00,47.3,34.9,29.56,NNW,335,1.0,1.0,62,0.00,,,0.00,Wunderground v.1.13,2013-10-23 19:05:00,
2013-10-23 15:15:00,47.0,33.0,29.56,North,8,1.0,1.0,58,0.00,,,0.00,Wunderground v.1.13,2013-10-23 19:15:00,
2013-10-23 15:25:00,46.7,33.1,29.57,West,260,1.0,1.0,59,0.00,,,0.00,Wunderground v.1.13,2013-10-23 19:25:00,
2013-10-23 15:35:00,46.7,32.7,29.58,NNW,347,1.0,1.0,58,0.00,,,0.00,Wunderground v.1.13,2013-10-23 19:35:00,
2013-10-23 15:45:00,46.5,32.1,29.58,WNW,301,1.0,2.0,57,0.00,,,0.00,Wunderground v.1.13,2013-10-23 19:45:00,
2013-10-23 15:55:00,46.1,32.6,29.58,NW,320,1.0,1.0,59,0.00,,,0.00,Wunderground v.1.13,2013-10-23 19:55:00,
2013-10-23 16:00:00,46.0,33.3,29.58,East,80,1.0,1.0,61,0.00,,,0.00,Wunderground v.1.13,2013-10-23 20:00:00,
2013-10-23 16:10:00,46.2,33.5,29.58,West,280,1.0,1.0,61,0.00,,,0.00,Wunderground v.1.13,2013-10-23 20:10:00,
2013-10-23 16:20:00,46.4,34.1,29.58,NE,52,1.0,1.0,62,0.00,,,0.00,Wunderground v.1.13,2013-10-23 20:20:00,
2013-10-23 16:30:00,46.1,32.6,29.58,NNW,347,1.0,1.0,59,0.00,,,0.00,Wunderground v.1.13,2013-10-23 20:30:00,
2013-10-23 16:40:00,45.5,31.1,29.60,North,0,1.0,3.0,57,0.00,,,0.00,Wunderground v.1.13,2013-10-23 20:40:00,
2013-10-23 16:50:00,45.2,29.1,29.61,NE,52,1.0,1.0,53,0.00,,,0.00,Wunderground v.1.13,2013-10-23 20:50:00,
2013-10-23 16:59:00,44.8,29.2,29.61,North,3,2.0,2.0,54,0.00,,,0.00,Wunderground v.1.13,2013-10-23 20:59:00,
2013-10-23 17:04:00,44.6,29.9,29.61,North,7,1.0,1.0,56,0.00,,,0.00,Wunderground v.1.13,2013-10-23 21:04:00,
2013-10-23 17:10:00,44.6,29.4,29.62,NE,34,1.0,3.0,55,0.00,,,0.00,Wunderground v.1.13,2013-10-23 21:10:00,
2013-10-23 17:20:00,44.2,29.5,29.63,NNE,17,1.0,1.0,56,0.00,,,0.00,Wunderground v.1.13,2013-10-23 21:20:00,
2013-10-23 17:29:00,43.6,29.8,29.63,NNW,347,1.0,1.0,58,0.00,,,0.00,Wunderground v.1.13,2013-10-23 21:29:00,
2013-10-23 17:35:00,43.5,29.3,29.63,NE,44,1.0,1.0,57,0.00,,,0.00,Wunderground v.1.13,2013-10-23 21:35:00,
2013-10-23 17:44:00,43.1,29.7,29.63,East,85,1.0,1.0,59,0.00,,,0.00,Wunderground v.1.13,2013-10-23 21:44:00,
2013-10-23 17:49:00,42.8,28.6,29.63,NE,45,1.0,1.0,57,0.00,,,0.00,Wunderground v.1.13,2013-10-23 21:49:00,
2013-10-23 17:55:00,42.6,27.5,29.65,NNW,337,1.0,1.0,55,0.00,,,0.00,Wunderground v.1.13,2013-10-23 21:55:00,
2013-10-23 18:00:00,42.3,29.8,29.65,East,80,1.0,1.0,61,0.00,,,0.00,Wunderground v.1.13,2013-10-23 22:00:00,
2013-10-23 18:09:00,41.8,28.5,29.65,SSE,160,1.0,1.0,59,0.00,,,0.00,Wunderground v.1.13,2013-10-23 22:09:00,
2013-10-23 18:20:00,41.1,29.5,29.67,North,0,1.0,2.0,63,0.00,,,0.00,Wunderground v.1.13,2013-10-23 22:20:00,
2013-10-23 18:30:00,40.5,28.1,29.67,ESE,103,1.0,1.0,61,0.00,,,0.00,Wunderground v.1.13,2013-10-23 22:30:00,
2013-10-23 18:40:00,39.9,28.7,29.67,NNW,329,1.0,1.0,64,0.00,,,0.00,Wunderground v.1.13,2013-10-23 22:40:00,
2013-10-23 18:50:00,39.5,28.3,29.68,SE,138,1.0,5.0,64,0.00,,,0.00,Wunderground v.1.13,2013-10-23 22:50:00,
2013-10-23 19:00:00,39.1,28.7,29.68,South,186,0.0,2.0,66,0.00,,,0.00,Wunderground v.1.13,2013-10-23 23:00:00,
2013-10-23 19:10:00,38.8,29.1,29.69,East,86,0.0,1.0,68,0.00,,,0.00,Wunderground v.1.13,2013-10-23 23:10:00,
2013-10-23 19:19:00,38.3,29.4,29.69,East,86,0.0,0.0,70,0.00,,,0.00,Wunderground v.1.13,2013-10-23 23:19:00,
2013-10-23 19:24:00,38.0,28.7,29.69,ESE,110,0.0,0.0,69,0.00,,,0.00,Wunderground v.1.13,2013-10-23 23:24:00,
2013-10-23 19:30:00,37.9,28.6,29.69,ESE,110,0.0,0.0,69,0.00,,,0.00,Wunderground v.1.13,2013-10-23 23:30:00,
2013-10-23 19:40:00,37.6,28.7,29.70,East,86,0.0,0.0,70,0.00,,,0.00,Wunderground v.1.13,2013-10-23 23:40:00,
2013-10-23 19:49:00,37.2,29.0,29.70,North,3,1.0,1.0,72,0.00,,,0.00,Wunderground v.1.13,2013-10-23 23:49:00,
2013-10-23 19:55:00,37.0,29.5,29.71,NNW,344,1.0,1.0,74,0.00,,,0.00,Wunderground v.1.13,2013-10-23 23:55:00,
2013-10-23 20:05:00,36.8,29.3,29.71,South,184,0.0,0.0,74,0.00,,,0.00,Wunderground v.1.13,2013-10-24 00:05:00,
2013-10-23 20:15:00,36.5,28.7,29.71,North,352,1.0,1.0,73,0.00,,,0.00,Wunderground v.1.13,2013-10-24 00:15:00,
2013-10-23 20:24:00,36.2,29.7,29.73,East,80,0.0,0.0,77,0.00,,,0.00,Wunderground v.1.13,2013-10-24 00:24:00,
2013-10-23 20:29:00,36.2,29.4,29.73,NNW,333,0.0,0.0,76,0.00,,,0.00,Wunderground v.1.13,2013-10-24 00:29:00,
2013-10-23 20:35:00,36.0,28.8,29.74,NE,38,0.0,0.0,75,0.00,,,0.00,Wunderground v.1.13,2013-10-24 00:35:00,
2013-10-23 20:45:00,35.9,29.4,29.74,ENE,61,0.0,0.0,77,0.00,,,0.00,Wunderground v.1.13,2013-10-24 00:45:00,
2013-10-23 20:55:00,35.6,28.8,29.74,NE,44,0.0,1.0,76,0.00,,,0.00,Wunderground v.1.13,2013-10-24 00:55:00,
2013-10-23 21:04:00,35.5,29.9,29.74,NE,47,0.0,0.0,80,0.00,,,0.00,Wunderground v.1.13,2013-10-24 01:04:00,
2013-10-23 21:10:00,35.3,29.1,29.74,NE,47,0.0,0.0,78,0.00,,,0.00,Wunderground v.1.13,2013-10-24 01:10:00,
2013-10-23 21:20:00,35.2,29.6,29.76,SE,143,0.0,0.0,80,0.00,,,0.00,Wunderground v.1.13,2013-10-24 01:20:00,
2013-10-23 21:30:00,34.9,28.4,29.76,SSE,165,0.0,0.0,77,0.00,,,0.00,Wunderground v.1.13,2013-10-24 01:30:00,
2013-10-23 21:40:00,34.7,28.5,29.76,SSE,167,0.0,0.0,78,0.00,,,0.00,Wunderground v.1.13,2013-10-24 01:40:00,
2013-10-23 21:45:00,34.7,28.9,29.76,SSE,157,0.0,1.0,79,0.00,,,0.00,Wunderground v.1.13,2013-10-24 01:45:00,
2013-10-23 21:55:00,34.7,28.5,29.77,SSW,193,0.0,1.0,78,0.00,,,0.00,Wunderground v.1.13,2013-10-24 01:55:00,
2013-10-23 22:04:00,34.7,28.9,29.77,WSW,240,0.0,1.0,79,0.00,,,0.00,Wunderground v.1.13,2013-10-24 02:04:00,
2013-10-23 22:09:00,34.7,29.2,29.76,WNW,289,0.0,1.0,80,0.00,,,0.00,Wunderground v.1.13,2013-10-24 02:09:00,
2013-10-23 22:15:00,34.7,28.9,29.76,North,3,0.0,0.0,79,0.00,,,0.00,Wunderground v.1.13,2013-10-24 02:15:00,
2013-10-23 22:24:00,34.6,29.1,29.77,North,3,0.0,0.0,80,0.00,,,0.00,Wunderground v.1.13,2013-10-24 02:24:00,
2013-10-23 22:29:00,34.6,29.1,29.77,NNW,340,0.0,0.0,80,0.00,,,0.00,Wunderground v.1.13,2013-10-24 02:29:00,
2013-10-23 22:40:00,34.6,28.8,29.76,NNW,340,0.0,0.0,79,0.00,,,0.00,Wunderground v.1.13,2013-10-24 02:40:00,
2013-10-23 22:50:00,34.6,28.4,29.75,NNE,18,0.0,2.0,78,0.00,,,0.00,Wunderground v.1.13,2013-10-24 02:50:00,
2013-10-23 23:00:00,34.4,27.9,29.75,SE,124,0.0,0.0,77,0.00,,,0.00,Wunderground v.1.13,2013-10-24 03:00:00,
2013-10-23 23:10:00,34.4,27.6,29.77,WSW,241,0.0,0.0,76,0.00,,,0.00,Wunderground v.1.13,2013-10-24 03:10:00,
2013-10-23 23:15:00,34.3,27.5,29.77,South,169,0.0,0.0,76,0.00,,,0.00,Wunderground v.1.13,2013-10-24 03:15:00,
2013-10-23 23:25:00,34.3,27.8,29.77,NW,326,0.0,0.0,77,0.00,,,0.00,Wunderground v.1.13,2013-10-24 03:25:00,
2013-10-23 23:34:00,34.1,27.6,29.77,NW,326,0.0,0.0,77,0.00,,,0.00,Wunderground v.1.13,2013-10-24 03:34:00,
2013-10-23 23:39:00,34.1,27.6,29.77,West,272,0.0,0.0,77,0.00,,,0.00,Wunderground v.1.13,2013-10-24 03:39:00,
2013-10-23 23:45:00,34.1,27.6,29.77,WNW,292,0.0,0.0,77,0.00,,,0.00,Wunderground v.1.13,2013-10-24 03:45:00,
2013-10-23 23:55:00,34.1,28.0,29.77,NW,325,0.0,0.0,78,0.00,,,0.00,Wunderground v.1.13,2013-10-24 03:55:00,
2013-10-23 23:59:00,34.1,27.3,29.77,NW,325,0.0,1.0,76,0.00,,,0.00,Wunderground v.1.13,2013-10-24 03:59:00,